AURA

Last updated on Sun Jun 21 2026 00:02:51 GMT+0000 (Coordinated Universal Time)

1 28376U 04026A 26171.40966628 .00000566 00000+0 12442-3 0 9998 2 28376 98.3418 127.8897 0001187 77.8282 282.3052 14.61333094166687
UTC large
Height (km)
Speed (km/s)
/
Latitude / Longitude
Inclination (degrees)
Orbital Period (minutes)
Azimuth
Elevation
Range (km)
Doppler Factor

Next 0 passes for location: London (51.5072 / 0.1276)

No passes found over London.
AURA